Wetbulb
70.38 67.24 64.30 62.33 59.25 59.66 54.79 55.49 59.25 57.69 57.14 59.77 60.82 59.18 57.95 59.14 56.70 53.73 67.49 71.63 72.29 74.99 75.68 75.26 75.42 75.32 74.82 73.93 73.36 73.14 72.79 73.02 72.86 72.96 72.75 72.73 72.87 72.79 72.79 72.83 72.97 73.93 73.88 73.44 74.11 74.87 74.51 74.09 73.65
64.66 62.83 59.05 60.26 57.58 54.34 54.49 57.04 55.22 56.76 59.07 61.01 60.51 59.56 57.85 57.33 63.48 65.92 67.93 72.96 74.21 75.36 75.51 74.93 75.48 75.35 74.57 73.71 73.14 72.86 72.81 72.79 72.99 72.97 73.03 73.03 73.10 72.95 72.81 72.59 72.81 72.98 73.07 73.67 73.93 73.82 73.75 73.89 73.88
59.93 56.64 54.98 58.32 57.30 54.27 54.25 56.51 57.26 58.50 59.49 59.62 58.53 60.74 58.74 58.88 64.57 66.18 69.77 73.87 74.65 74.59 75.38 75.35 75.38 75.13 74.37 73.40 73.08 72.99 72.97 72.77 72.89 73.25 73.40 73.38 73.61 73.83 73.81 73.72 73.29 73.12 73.04 73.07 73.03 73.14 73.42 73.53 73.90
57.83 56.53 53.54 56.05 53.21 56.16 56.19 57.60 58.55 57.89 59.28 60.18 60.03 57.13 61.59 65.05 65.26 67.42 73.02 73.90 73.46 73.96 74.54 75.21 75.09 74.91 74.12 73.20 73.14 73.09 72.99 72.99 72.86 72.95 73.31 73.23 73.54 73.56 73.44 73.31 73.13 73.16 72.99 73.10 73.21 73.25 73.39 73.75 73.79
55.67 53.66 52.03 49.97 48.52 56.26 58.36 59.33 59.32 57.61 58.08 58.72 58.39 56.12 57.83 63.77 67.66 70.87 72.44 72.32 72.04 73.32 74.24 74.38 75.11 74.88 74.22 73.27 73.33 73.30 73.18 73.05 72.83 72.77 72.75 72.71 72.71 72.39 72.41 72.23 72.24 72.42 72.63 72.72 72.81 73.12 73.43 73.57 73.30
54.27 52.70 52.22 50.99 52.49 57.37 58.96 60.28 59.74 58.14 58.54 58.56 56.98 56.76 58.42 65.79 68.48 70.58 71.81 71.47 72.10 72.56 73.81 74.16 75.09 74.79 74.35 73.63 73.47 73.55 73.36 73.14 72.93 72.80 72.50 72.12 71.75 71.83 72.12 72.42 72.74 72.88 73.13 73.20 73.37 73.72 74.39 74.51 74.21
52.16 52.39 48.88 52.54 54.46 56.48 58.29 60.92 59.41 58.13 56.67 55.15 58.56 52.67 59.52 64.09 67.51 70.54 71.09 71.01 71.60 72.41 73.02 73.99 73.92 74.56 74.16 73.70 73.56 73.46 73.32 73.17 73.12 73.29 73.04 73.06 73.11 73.41 73.36 73.61 73.45 73.25 73.49 73.67 74.02 74.71 74.91 74.86 74.86
52.09 52.59 50.56 55.01 54.87 55.24 60.09 59.89 59.88 57.94 57.51 61.63 59.09 51.95 53.27 61.83 68.22 69.89 70.09 70.04 70.40 71.07 72.49 72.95 73.84 72.94 73.10 72.65 73.66 73.44 73.11 73.02 73.02 73.21 73.26 73.61 72.61 72.24 72.32 72.82 73.11 73.13 73.85 74.38 74.81 74.96 75.48 75.32 75.31
50.56 50.61 49.39 51.92 55.69 57.75 60.85 58.01 60.52 62.67 58.90 60.99 60.82 59.10 59.34 65.25 68.06 67.17 66.96 68.09 69.29 70.78 71.72 72.23 72.04 72.60 72.32 72.10 72.85 73.36 72.99 72.87 73.18 73.14 72.55 73.78 73.79 74.03 75.31 74.81 75.09 74.96 74.76 74.51 73.96 73.57 73.22 73.02 73.93
51.29 50.54 49.48 51.92 59.56 59.62 60.50 58.79 60.93 58.99 58.95 59.93 61.10 62.71 62.95 65.34 65.11 63.28 63.46 64.37 66.30 67.40 69.40 70.94 71.42 71.84 71.95 71.52 72.52 73.40 73.28 74.33 74.12 73.77 73.35 73.92 74.90 75.26 74.74 73.93 73.69 73.37 72.92 72.43 71.85 71.75 72.60 73.94 74.40
49.51 50.31 53.26 56.12 60.72 61.35 60.41 60.18 61.71 59.24 58.04 60.76 60.70 61.34 61.31 63.03 63.34 62.45 62.52 63.74 64.90 66.80 68.29 69.52 71.24 72.26 71.20 71.14 72.66 72.83 73.08 73.54 74.18 73.64 73.88 73.91 75.87 75.76 74.25 74.17 73.88 73.62 71.96 72.45 72.38 72.42 72.19 72.39 72.60
48.81 55.68 59.22 59.84 60.76 60.96 59.97 62.04 60.29 60.46 59.43 62.97 63.44 63.48 62.00 62.68 62.93 62.56 62.24 63.46 64.72 66.01 66.94 68.96 70.49 71.52 71.83 71.65 72.79 73.14 73.03 73.17 73.36 74.11 74.16 74.98 75.12 73.33 72.40 72.15 71.62 71.24 70.76 69.98 70.02 69.83 69.89 69.86 70.39
49.58 57.44 59.76 60.01 61.23 60.70 61.50 60.37 60.15 60.18 63.34 63.58 63.55 64.11 63.27 63.22 63.71 63.94 63.58 63.72 64.63 64.85 66.30 67.66 69.86 70.86 71.61 71.55 73.23 74.09 73.34 73.34 74.07 74.53 74.39 74.73 72.83 71.41 71.42 70.65 69.56 68.87 68.65 68.05 67.57 67.54 67.53 67.51 67.94
57.45 60.03 59.47 60.29 60.60 60.41 59.59 59.15 59.90 61.34 63.47 62.29 62.95 63.74 64.70 65.05 65.54 65.31 64.51 64.16 65.36 66.03 66.49 67.62 68.88 70.93 70.74 71.79 73.40 73.23 73.16 72.79 72.64 72.67 72.18 72.11 71.30 70.41 69.64 68.26 67.46 67.03 67.16 67.00 66.38 66.15 66.03 66.06 66.62
60.05 57.96 59.72 59.74 59.89 58.97 59.94 57.41 57.97 62.04 63.00 61.85 62.45 63.63 64.22 65.30 66.30 66.28 66.55 65.80 67.12 67.51 68.22 68.49 69.81 70.67 71.49 73.23 72.90 72.14 71.63 71.29 70.81 70.38 70.14 70.01 69.83 69.04 68.00 66.82 66.01 66.19 66.37 65.72 65.05 64.34 63.99 63.97 66.46
57.54 57.98 55.45 58.04 59.69 58.76 59.17 55.90 58.43 62.44 62.08 61.18 61.81 62.87 63.35 64.41 65.61 67.27 67.98 68.50 69.18 70.16 69.35 69.92 71.03 71.58 73.04 72.60 71.80 70.81 70.46 70.02 69.08 68.59 68.37 68.18 67.77 67.78 67.00 65.42 65.01 65.68 65.27 64.12 62.74 62.27 61.63 61.55 64.55
52.54 52.54 53.78 55.37 59.91 58.68 58.71 57.19 58.66 62.41 62.27 61.43 62.58 63.46 63.92 65.10 66.78 67.93 68.66 68.63 69.81 70.90 71.15 71.96 72.94 72.34 72.20 71.45 70.52 69.84 69.62 68.46 67.76 67.32 66.79 67.17 65.99 65.49 64.61 64.01 63.95 64.64 62.72 62.27 61.36 61.47 61.68 60.64 61.70
50.21 51.59 53.03 53.71 58.29 58.20 57.42 57.89 59.20 60.77 61.77 61.81 63.30 64.18 64.88 65.44 66.75 69.03 69.87 70.12 70.59 71.61 72.53 73.29 72.86 72.18 70.99 69.62 68.97 67.74 66.71 66.95 66.28 65.09 65.51 65.66 63.78 63.00 63.35 63.40 63.79 63.11 61.58 61.12 61.65 61.62 61.94 61.31 61.26
48.95 49.84 53.56 53.71 57.81 57.96 57.53 58.03 59.86 60.69 61.06 61.39 63.02 64.51 65.64 66.56 69.18 70.16 70.37 71.22 71.38 72.09 72.69 72.94 71.60 70.90 69.15 67.79 66.04 65.34 64.02 63.83 63.21 63.40 63.78 63.03 62.48 63.49 63.69 62.13 62.32 62.51 61.46 61.83 62.23 61.38 60.65 60.11 61.31
46.34 46.45 50.48 48.28 49.13 57.72 57.20 57.07 59.60 59.70 61.08 61.67 62.68 64.26 65.67 67.14 68.31 69.03 70.04 70.96 71.57 72.13 72.67 72.35 71.58 70.33 69.13 68.46 67.13 65.41 62.51 62.04 62.08 61.83 62.46 62.82 62.52 62.92 63.01 62.54 61.57 62.08 60.97 61.92 61.92 61.82 59.27 59.14 60.40
45.47 45.73 45.90 46.65 51.83 55.18 53.05 51.60 54.41 58.44 60.82 62.43 63.29 65.20 66.54 67.14 67.67 68.62 69.10 69.89 70.94 71.72 72.24 72.05 70.79 69.26 68.47 67.73 66.19 63.39 61.93 61.14 59.99 60.70 61.25 62.40 62.60 62.56 62.66 62.54 62.30 62.03 61.65 60.08 61.10 61.26 60.63 57.75 59.09
45.34 47.67 47.62 49.15 49.76 45.84 52.89 44.45 53.01 56.72 58.03 60.31 62.53 63.82 65.26 66.97 68.38 69.21 68.94 69.22 69.92 71.64 72.35 72.42 70.77 69.20 68.28 66.85 65.25 62.80 60.50 58.17 59.19 60.26 61.46 62.10 63.15 63.00 63.04 63.31 63.22 62.90 61.90 61.55 60.58 60.92 60.37 59.83 56.98
48.11 48.71 47.92 49.93 48.88 48.26 50.15 47.89 50.82 54.66 55.63 58.63 61.49 63.40 65.16 66.70 67.77 68.33 68.92 69.44 69.46 69.53 70.07 70.63 69.86 68.12 67.06 64.84 63.69 61.50 61.52 60.38 60.25 60.79 61.83 62.61 63.23 63.24 62.76 63.62 63.86 63.63 62.49 62.43 61.77 61.27 60.59 59.31 57.65
49.15 48.57 48.23 47.21 46.91 42.75 47.63 49.00 46.91 50.74 56.20 58.27 61.80 63.49 64.62 66.08 67.43 68.78 69.59 69.32 67.29 64.26 64.23 64.29 65.26 65.51 65.92 64.77 63.01 62.66 61.87 60.75 59.70 60.54 60.49 60.97 61.72 62.28 63.14 63.14 63.52 63.09 62.94 62.65 61.75 61.34 60.34 58.91 58.09
48.94 49.09 43.48 41.79 41.70 41.35 44.93 46.30 49.14 53.83 53.26 56.71 61.12 63.32 64.79 65.86 66.43 67.54 67.64 66.43 63.74 61.35 60.50 60.53 60.56 61.68 64.98 63.60 62.93 63.05 62.49 61.75 61.47 61.38 60.77 60.98 60.54 61.04 62.50 63.38 62.75 61.64 61.33 61.10 61.06 60.95 59.73 58.30 57.20
48.58 49.29 43.66 38.11 39.30 41.78 43.72 42.85 47.14 53.16 53.70 57.13 59.23 61.23 60.56 62.23 65.86 66.95 66.45 65.86 62.35 62.76 60.89 61.49 61.09 60.93 62.49 63.17 62.26 62.90 62.57 61.21 61.22 62.04 61.51 61.05 60.93 62.00 63.45 62.32 61.35 60.58 60.19 59.73 60.27 59.58 58.35 58.05 57.35
46.39 45.41 48.06 43.86 41.78 41.89 44.59 46.49 51.48 54.49 55.44 57.20 60.75 61.87 60.97 59.97 63.87 66.02 65.72 64.88 64.02 63.78 63.94 62.58 61.07 61.72 62.32 63.58 62.00 61.79 62.07 61.56 61.29 62.52 62.51 61.51 62.66 61.74 61.17 60.84 60.03 59.69 59.14 58.42 58.94 57.80 57.24 56.97 55.77
48.99 48.90 45.31 45.38 39.75 38.30 42.65 43.90 46.67 52.56 54.90 56.68 59.31 61.50 62.14 62.44 63.89 64.72 64.45 64.83 65.03 64.74 64.59 63.44 63.02 61.82 62.45 63.52 62.08 61.35 62.03 61.94 62.14 61.85 61.49 62.27 61.63 60.55 59.31 58.88 58.71 58.22 57.89 57.42 57.34 56.46 55.88 55.37 54.58
46.89 46.42 45.62 47.30 45.76 41.88 40.65 44.12 53.72 54.59 57.05 57.37 58.99 61.61 63.01 63.26 63.16 63.98 64.26 65.54 65.70 65.33 64.37 63.31 62.14 62.32 61.73 61.77 61.40 61.23 61.73 61.88 61.57 61.59 61.84 61.27 59.71 59.25 57.96 57.16 56.73 56.22 55.99 56.04 55.72 55.07 54.08 53.35 53.44
49.64 49.15 49.82 45.22 44.02 44.00 43.99 44.88 52.68 55.68 56.71 57.92 59.16 61.01 63.46 63.98 63.81 63.91 63.82 64.58 65.61 64.69 63.35 62.39 61.68 61.36 61.15 61.21 60.74 60.75 61.22 61.12 61.30 60.93 59.74 57.91 57.44 57.87 56.74 56.29 55.89 55.10 54.70 54.71 53.78 52.53 52.33 51.78 51.55
MSLP
1012.45 1012.58 1012.52 1012.08 1011.51 1010.14 1010.18 1010.63 1010.90 1010.64 1011.03 1011.69 1012.03 1012.45 1012.80 1013.47 1013.84 1015.02 1015.99 1016.26 1016.19 1016.50 1017.00 1017.47 1017.86 1017.99 1018.19 1018.28 1018.36 1018.46 1018.50 1018.51 1018.55 1018.66 1018.75 1018.81 1018.87 1018.91 1018.96 1019.02 1019.12 1019.13 1019.12 1019.14 1019.12 1019.04 1018.94 1018.83 1018.72
1012.20 1012.45 1012.05 1010.96 1010.06 1009.55 1010.02 1010.65 1010.63 1010.92 1011.53 1011.88 1012.21 1012.73 1013.15 1013.99 1014.75 1015.41 1015.87 1016.41 1016.26 1016.59 1017.01 1017.34 1017.84 1018.04 1018.22 1018.31 1018.45 1018.54 1018.59 1018.65 1018.74 1018.80 1018.85 1018.94 1019.02 1019.07 1019.10 1019.15 1019.21 1019.25 1019.24 1019.22 1019.22 1019.17 1019.09 1019.00 1018.86
1011.86 1011.77 1010.83 1010.06 1009.93 1009.67 1009.90 1010.57 1010.80 1011.33 1011.67 1011.74 1012.32 1013.05 1013.56 1014.30 1015.22 1015.41 1015.88 1016.28 1016.44 1016.71 1017.06 1017.55 1017.99 1018.18 1018.34 1018.45 1018.54 1018.66 1018.73 1018.76 1018.84 1018.91 1018.98 1019.07 1019.18 1019.24 1019.27 1019.30 1019.32 1019.35 1019.36 1019.36 1019.32 1019.28 1019.19 1019.08 1018.98
1011.35 1011.22 1010.96 1009.81 1009.50 1009.95 1010.01 1010.51 1010.85 1011.11 1011.57 1011.95 1012.51 1013.21 1014.20 1014.91 1015.21 1015.59 1016.05 1016.18 1016.54 1016.79 1017.15 1017.79 1018.15 1018.40 1018.58 1018.67 1018.73 1018.78 1018.89 1018.99 1019.04 1019.14 1019.23 1019.30 1019.35 1019.42 1019.46 1019.46 1019.48 1019.48 1019.43 1019.38 1019.36 1019.31 1019.25 1019.14 1019.01
1011.20 1010.60 1009.80 1009.71 1009.77 1010.09 1010.45 1010.60 1010.78 1010.95 1011.56 1011.94 1012.45 1013.54 1014.48 1015.40 1015.80 1016.08 1016.29 1016.44 1016.54 1017.09 1017.43 1017.72 1018.23 1018.44 1018.63 1018.74 1018.78 1018.90 1019.01 1019.20 1019.29 1019.36 1019.42 1019.51 1019.60 1019.61 1019.62 1019.62 1019.59 1019.54 1019.48 1019.40 1019.32 1019.23 1019.13 1019.07 1018.97
1010.43 1010.39 1009.51 1009.22 1009.68 1010.22 1010.53 1010.67 1010.77 1011.11 1011.60 1012.10 1012.62 1013.51 1014.69 1015.69 1016.06 1016.37 1016.64 1016.83 1016.90 1017.30 1017.62 1017.88 1018.40 1018.60 1018.78 1018.88 1018.98 1019.09 1019.27 1019.41 1019.55 1019.62 1019.72 1019.75 1019.76 1019.77 1019.69 1019.67 1019.59 1019.48 1019.35 1019.23 1019.13 1019.02 1018.89 1018.74 1018.62
1009.97 1009.73 1009.59 1009.60 1009.74 1009.87 1010.37 1010.79 1010.65 1011.01 1011.42 1011.95 1012.71 1013.37 1014.84 1015.62 1016.09 1016.58 1016.93 1017.27 1017.32 1017.49 1017.88 1017.94 1018.10 1018.57 1018.88 1019.06 1019.20 1019.41 1019.52 1019.62 1019.72 1019.78 1019.82 1019.80 1019.80 1019.76 1019.66 1019.52 1019.44 1019.35 1019.25 1019.13 1018.96 1018.83 1018.67 1018.50 1018.34
1010.27 1009.87 1009.66 1009.58 1009.55 1009.59 1010.25 1010.51 1010.89 1010.91 1011.48 1012.22 1012.54 1013.16 1014.08 1015.14 1016.30 1016.88 1017.18 1017.41 1017.75 1018.05 1018.21 1018.02 1018.34 1018.30 1018.59 1018.71 1019.25 1019.47 1019.62 1019.72 1019.84 1019.89 1019.86 1019.83 1019.73 1019.67 1019.56 1019.38 1019.24 1019.21 1019.08 1018.96 1018.82 1018.67 1018.47 1018.20 1018.02
1010.49 1009.72 1009.14 1009.26 1009.49 1009.38 1010.13 1010.24 1011.16 1011.37 1011.47 1012.04 1012.62 1013.09 1013.90 1015.27 1016.23 1016.65 1017.10 1017.39 1017.67 1018.01 1017.91 1018.01 1018.26 1018.59 1018.84 1018.94 1019.22 1019.48 1019.68 1019.74 1019.80 1019.77 1019.91 1019.60 1019.39 1019.27 1019.05 1019.39 1019.27 1019.15 1018.99 1018.87 1018.76 1018.61 1018.39 1018.07 1017.69
1009.90 1009.65 1009.15 1009.36 1009.28 1009.09 1009.82 1010.14 1010.77 1011.02 1011.57 1012.01 1012.64 1013.68 1014.46 1015.50 1015.91 1016.13 1016.46 1016.74 1017.06 1017.31 1017.77 1018.02 1018.30 1018.52 1018.73 1018.92 1019.16 1019.30 1019.49 1019.45 1019.45 1019.52 1019.60 1019.49 1019.55 1019.47 1019.36 1019.48 1019.48 1019.39 1019.27 1019.01 1018.83 1018.63 1018.26 1017.69 1017.22
1010.01 1009.49 1009.64 1009.42 1009.37 1009.49 1009.98 1010.46 1010.95 1010.87 1011.29 1011.47 1012.06 1013.26 1014.37 1015.16 1015.70 1015.94 1016.14 1016.36 1016.71 1017.04 1017.57 1017.90 1018.40 1018.78 1018.78 1018.80 1019.07 1019.18 1019.30 1019.36 1019.49 1019.57 1019.56 1019.67 1019.48 1019.50 1019.32 1019.23 1019.17 1019.19 1019.25 1018.82 1018.63 1018.33 1018.10 1017.98 1017.62
1009.92 1009.85 1009.93 1009.91 1009.85 1009.73 1010.05 1010.60 1010.75 1010.79 1010.76 1011.14 1011.86 1013.11 1014.12 1014.81 1015.17 1015.51 1015.77 1016.28 1016.72 1017.06 1017.27 1017.72 1018.15 1018.64 1018.84 1018.81 1018.92 1019.14 1019.18 1019.38 1019.39 1019.53 1019.65 1019.60 1019.48 1019.74 1019.76 1019.64 1019.68 1019.61 1019.56 1019.39 1019.13 1018.71 1018.67 1018.30 1017.96
1009.99 1010.05 1010.33 1010.48 1010.13 1010.38 1010.54 1010.69 1010.76 1010.89 1010.96 1011.27 1012.15 1013.37 1013.81 1014.42 1014.94 1015.46 1015.93 1016.23 1016.57 1016.83 1017.12 1017.53 1017.98 1018.46 1018.73 1019.01 1018.94 1019.07 1019.25 1019.32 1019.50 1019.60 1019.75 1019.66 1019.78 1020.00 1020.05 1020.21 1020.12 1020.11 1019.95 1019.73 1019.40 1019.21 1018.98 1018.52 1018.16
1010.50 1010.41 1010.56 1010.54 1010.39 1010.65 1010.59 1010.78 1010.92 1010.92 1011.30 1011.81 1012.40 1012.95 1013.52 1014.08 1014.58 1015.21 1015.73 1015.88 1016.27 1016.53 1016.90 1017.31 1017.75 1018.30 1018.52 1018.93 1019.12 1019.18 1019.34 1019.59 1019.65 1019.91 1020.05 1020.19 1020.16 1020.36 1020.41 1020.53 1020.52 1020.46 1020.27 1020.03 1019.76 1019.58 1019.32 1018.95 1018.52
1010.56 1010.40 1010.36 1010.63 1010.55 1010.81 1010.78 1010.68 1010.43 1010.88 1011.28 1011.71 1012.33 1012.79 1013.24 1013.76 1014.40 1014.50 1014.93 1015.42 1015.78 1016.11 1016.61 1017.09 1017.67 1018.00 1018.35 1018.75 1019.04 1019.35 1019.50 1019.75 1019.90 1020.18 1020.58 1020.53 1020.53 1020.83 1020.91 1020.93 1020.89 1020.80 1020.66 1020.31 1020.08 1019.71 1019.34 1019.12 1018.76
1010.04 1010.16 1009.90 1010.67 1010.64 1011.09 1010.89 1009.57 1010.28 1010.78 1011.00 1011.49 1012.16 1012.82 1013.34 1013.88 1014.12 1014.35 1014.79 1015.12 1015.44 1015.81 1016.32 1016.89 1017.24 1017.74 1018.20 1018.78 1019.08 1019.40 1019.84 1019.98 1020.23 1020.41 1020.69 1020.97 1020.95 1021.08 1021.15 1021.15 1021.21 1021.10 1020.92 1020.66 1020.34 1020.12 1019.72 1019.43 1019.14
1009.76 1009.18 1009.63 1010.15 1010.58 1010.71 1010.57 1009.73 1010.53 1010.72 1010.98 1011.31 1011.95 1012.58 1013.16 1013.65 1014.18 1014.44 1014.67 1014.85 1015.21 1015.72 1016.08 1016.49 1016.99 1017.54 1018.26 1018.82 1019.12 1019.62 1020.16 1020.28 1020.65 1020.82 1020.99 1021.19 1021.28 1021.33 1021.34 1021.45 1021.64 1021.48 1021.19 1020.98 1020.67 1020.50 1020.34 1019.85 1019.49
1008.86 1009.17 1009.60 1009.62 1010.21 1010.43 1010.19 1009.80 1010.40 1010.79 1010.89 1011.04 1011.75 1012.23 1012.80 1013.30 1013.51 1014.18 1014.63 1014.85 1015.02 1015.56 1016.17 1016.59 1017.14 1017.87 1018.43 1019.00 1019.89 1020.17 1020.48 1021.04 1020.99 1021.14 1021.37 1021.55 1021.61 1021.73 1021.65 1021.81 1021.84 1021.63 1021.48 1021.42 1021.25 1021.17 1020.91 1020.66 1020.12
1008.88 1009.01 1009.10 1009.52 1009.93 1010.17 1009.65 1009.07 1009.78 1010.62 1010.99 1010.97 1011.31 1012.09 1012.54 1013.01 1013.60 1014.09 1014.31 1014.64 1015.00 1015.54 1016.17 1016.84 1017.47 1018.22 1018.65 1019.02 1019.73 1020.37 1020.68 1021.11 1021.30 1021.60 1021.72 1021.85 1021.92 1022.00 1021.97 1021.92 1022.17 1022.13 1022.05 1022.08 1021.85 1021.49 1021.27 1020.86 1020.62
1009.09 1009.03 1009.20 1009.58 1010.05 1010.26 1009.73 1009.30 1009.62 1010.14 1010.07 1010.45 1010.93 1011.50 1012.11 1012.83 1013.46 1014.00 1014.36 1014.68 1014.87 1015.30 1016.02 1016.70 1017.33 1018.08 1018.59 1019.10 1019.60 1020.06 1020.57 1021.11 1021.47 1021.90 1022.06 1022.14 1022.16 1022.18 1022.20 1022.17 1022.20 1022.21 1022.06 1022.22 1022.15 1021.99 1021.41 1021.24 1021.36
1009.52 1009.24 1009.38 1009.57 1010.16 1010.46 1010.30 1009.40 1009.01 1009.04 1009.73 1010.15 1010.53 1010.84 1011.45 1011.80 1012.44 1013.36 1014.05 1014.48 1015.00 1015.14 1015.72 1016.38 1017.29 1018.00 1018.64 1019.39 1019.99 1020.49 1021.16 1021.62 1021.73 1021.99 1022.13 1022.33 1022.17 1022.30 1022.37 1022.42 1022.37 1022.48 1022.25 1022.43 1022.51 1022.47 1022.29 1021.75 1021.61
1009.20 1009.05 1009.26 1009.71 1009.65 1009.74 1010.17 1008.71 1008.56 1008.48 1008.79 1009.31 1009.53 1010.01 1010.34 1010.98 1011.64 1012.35 1013.20 1013.91 1014.42 1015.05 1015.70 1016.38 1017.23 1018.14 1018.77 1019.30 1019.74 1020.15 1020.40 1020.83 1021.27 1021.61 1021.95 1022.07 1022.26 1022.40 1022.51 1022.54 1022.58 1022.60 1022.34 1022.57 1022.66 1022.59 1022.53 1022.26 1022.00
1008.41 1008.54 1009.06 1009.24 1009.35 1009.55 1010.01 1009.45 1008.08 1008.42 1008.17 1008.04 1008.23 1008.52 1009.06 1009.63 1010.45 1011.27 1012.64 1013.50 1014.78 1015.81 1016.37 1017.27 1017.94 1018.63 1019.19 1019.55 1019.39 1019.98 1020.54 1021.12 1021.33 1021.61 1021.95 1022.13 1022.34 1022.41 1022.51 1022.62 1022.60 1022.53 1022.32 1022.70 1022.77 1022.80 1022.77 1022.59 1022.42
1008.71 1008.85 1009.24 1009.71 1009.55 1009.22 1008.87 1008.75 1007.44 1007.50 1007.02 1006.73 1006.97 1007.39 1007.84 1008.76 1009.73 1010.87 1012.22 1013.81 1015.20 1016.49 1017.08 1018.82 1018.87 1018.78 1018.86 1019.39 1020.17 1020.00 1020.21 1020.83 1021.30 1021.50 1021.61 1021.83 1022.02 1022.11 1022.49 1022.58 1022.63 1022.77 1022.71 1022.69 1022.70 1022.85 1022.90 1022.87 1022.88
1008.51 1008.29 1008.50 1008.78 1008.87 1008.59 1009.26 1008.79 1007.13 1006.81 1006.87 1006.90 1006.52 1006.79 1007.21 1008.19 1009.25 1010.46 1011.87 1013.55 1015.08 1016.07 1016.62 1016.97 1017.90 1018.61 1018.21 1019.22 1020.30 1020.08 1020.10 1020.72 1020.95 1021.48 1021.33 1021.69 1021.89 1022.07 1022.58 1022.64 1022.66 1022.79 1023.17 1023.05 1022.88 1022.80 1023.03 1023.12 1023.09
1007.85 1007.86 1007.94 1008.23 1008.62 1008.68 1009.48 1008.25 1007.03 1006.87 1006.87 1007.01 1007.03 1007.05 1007.46 1007.52 1008.58 1009.98 1011.49 1012.69 1014.06 1014.94 1015.06 1014.43 1014.53 1016.80 1017.61 1018.42 1019.55 1019.66 1019.98 1020.36 1020.72 1021.24 1021.29 1021.45 1021.73 1022.11 1022.53 1022.82 1023.02 1023.09 1023.19 1023.25 1023.06 1022.80 1023.09 1023.37 1023.31
1008.05 1008.38 1008.47 1008.64 1009.61 1008.87 1008.18 1007.93 1007.03 1006.85 1006.87 1006.97 1006.99 1007.02 1006.90 1007.40 1008.21 1009.53 1011.07 1012.11 1012.49 1013.10 1014.34 1015.33 1014.97 1016.50 1016.88 1017.50 1018.95 1019.41 1020.06 1020.13 1020.52 1021.27 1021.45 1021.71 1022.07 1022.42 1022.74 1023.07 1023.12 1023.30 1023.37 1023.54 1023.09 1023.04 1023.36 1023.53 1023.54
1007.63 1008.31 1008.77 1008.79 1008.43 1008.02 1007.61 1007.27 1006.23 1006.31 1006.22 1006.57 1006.71 1006.75 1006.99 1007.74 1008.58 1009.44 1010.39 1011.20 1011.78 1013.03 1013.88 1014.66 1014.69 1015.72 1016.47 1017.21 1018.00 1018.89 1019.48 1019.94 1020.55 1021.14 1021.39 1021.76 1022.08 1022.30 1022.82 1023.15 1023.27 1023.45 1023.63 1023.68 1023.41 1023.30 1023.71 1023.76 1023.63
1008.11 1008.18 1008.64 1008.51 1008.25 1007.38 1006.89 1006.03 1005.87 1005.64 1005.67 1005.96 1006.14 1006.49 1006.88 1007.71 1008.67 1009.39 1009.98 1010.66 1011.57 1012.63 1013.50 1014.12 1014.80 1015.67 1016.21 1016.80 1017.63 1018.51 1019.08 1019.84 1020.60 1021.15 1021.48 1021.83 1022.24 1022.38 1022.76 1023.08 1023.34 1023.67 1023.80 1023.94 1023.85 1023.76 1023.95 1023.90 1023.90
1007.21 1007.41 1007.84 1007.76 1007.94 1007.86 1006.99 1005.69 1005.56 1005.46 1005.39 1005.69 1005.74 1006.12 1006.70 1007.31 1008.16 1008.94 1009.70 1010.24 1010.69 1011.45 1012.63 1013.52 1014.43 1014.82 1015.60 1016.80 1017.56 1018.07 1018.84 1019.74 1020.45 1021.11 1021.65 1022.02 1022.32 1022.62 1023.15 1023.20 1023.54 1023.90 1024.06 1024.18 1024.10 1024.08 1024.19 1024.17 1024.08
Wind_Speed
11 8 2 3 3 0 3 4 2 2 3 3 9 3 3 3 0 3 4 3 11 13 11 11 10 11 12 13 13 13 13 13 13 12 12 11 11 10 10 9 9 8 8 8 7 6 6 6 6
7 5 3 1 1 4 5 3 10 5 8 11 8 5 2 3 3 9 9 9 13 13 11 10 11 11 11 12 12 12 12 12 12 11 11 11 10 10 9 8 8 7 6 5 4 4 4 6 7
5 1 3 1 2 3 4 8 13 10 3 3 4 5 2 3 4 10 7 14 14 13 11 10 11 10 10 11 11 11 11 11 11 10 10 9 9 8 7 6 6 4 3 3 3 4 6 7 7
2 3 2 1 5 3 1 13 10 9 5 5 7 7 4 4 9 4 15 15 13 12 10 12 10 9 9 9 10 10 9 9 9 8 8 7 6 5 4 4 3 3 4 5 6 7 8 9 10
2 1 2 3 1 1 3 7 3 6 5 6 2 4 5 4 4 12 14 11 13 10 9 11 10 10 9 9 9 9 8 7 7 6 6 5 3 2 2 2 3 4 5 7 8 8 9 9 9
2 1 2 1 2 1 2 2 5 4 5 8 8 8 5 1 9 13 12 10 10 11 9 9 9 9 8 8 7 7 6 6 5 4 4 3 2 2 3 4 4 5 6 7 8 9 9 9 10
1 1 3 3 3 4 5 3 5 7 9 9 9 6 3 5 8 12 10 8 8 9 8 9 8 8 7 6 6 4 4 4 4 3 3 3 4 5 6 6 6 7 8 9 9 10 10 11 11
2 1 5 2 6 4 7 4 7 11 7 9 7 5 8 9 13 10 9 8 6 6 7 8 7 8 7 7 6 5 3 3 3 3 3 5 3 5 5 6 4 8 8 9 9 9 10 9 9
2 1 4 4 7 5 8 6 7 2 12 4 5 4 7 17 15 11 9 9 8 7 9 8 7 6 5 4 4 5 4 2 1 2 5 2 5 6 6 11 11 10 9 9 8 8 9 9 1
2 2 2 2 6 9 13 12 10 8 11 5 5 11 17 16 15 15 13 12 11 11 10 7 7 6 6 4 4 4 3 1 2 2 4 3 5 7 7 8 10 10 9 7 8 9 8 7 6
2 2 2 3 7 6 11 10 4 13 10 7 11 17 18 16 14 14 13 12 12 10 8 9 7 6 5 4 2 2 2 2 1 1 2 3 3 3 4 3 4 5 7 6 7 7 6 9 7
4 1 1 3 3 7 10 10 6 6 3 6 13 18 18 17 16 15 14 12 10 10 10 8 8 7 5 3 2 1 2 2 1 1 2 3 3 4 4 4 5 5 5 7 7 5 8 8 8
4 1 4 4 8 7 7 5 3 9 1 5 18 18 18 16 15 12 10 9 10 10 10 9 8 6 5 4 1 1 2 2 3 3 5 4 4 4 4 5 5 5 5 6 6 6 7 8 8
2 4 5 4 8 6 5 3 2 8 5 12 18 19 17 17 17 12 12 12 12 11 10 10 9 7 6 4 3 3 4 6 5 5 6 7 5 4 5 5 5 6 6 6 6 7 7 7 7
4 6 7 6 3 4 1 4 7 5 10 16 17 16 16 17 16 17 15 14 13 12 11 10 8 9 8 8 7 6 6 6 6 7 7 7 7 7 6 6 6 6 6 8 7 8 8 7 6
3 3 7 3 4 2 5 11 5 8 13 16 16 14 14 14 17 15 13 14 13 12 12 11 9 11 11 10 8 7 7 6 6 6 6 8 8 8 7 6 6 6 6 6 7 8 8 9 7
2 8 4 4 5 4 8 10 1 8 11 14 14 14 14 14 13 13 13 14 11 11 13 13 13 13 13 12 9 9 9 7 6 6 6 8 8 9 7 6 6 6 7 7 8 8 9 10 8
8 6 4 4 8 6 7 13 5 7 11 14 13 14 13 14 15 11 12 9 11 12 13 12 11 14 14 10 9 7 7 6 6 6 7 8 7 8 8 7 8 7 8 8 8 9 9 10 9
7 5 12 5 6 10 18 19 11 7 10 13 15 13 13 14 9 9 10 10 12 13 14 14 14 14 12 10 9 7 7 6 7 6 8 8 8 8 8 7 7 7 8 9 9 7 9 10 10
3 5 6 3 1 10 8 19 11 11 13 17 16 16 15 14 12 12 12 12 14 15 14 14 14 15 11 8 7 5 8 6 7 7 8 8 9 8 8 8 8 8 8 9 10 10 7 8 10
3 6 6 5 4 5 1 11 13 10 13 11 16 16 18 19 18 16 15 13 12 15 15 14 14 14 10 10 8 8 8 7 7 8 7 7 8 9 8 8 7 7 6 6 7 7 8 7 6
8 15 7 11 9 4 9 5 6 8 11 16 17 18 20 21 19 18 18 17 16 13 12 13 14 14 12 13 10 12 8 10 7 8 7 7 8 8 7 7 6 5 5 6 5 5 5 5 6
6 9 14 10 7 4 8 6 2 1 11 17 20 22 22 23 23 22 19 17 12 9 8 7 7 9 11 8 11 10 9 7 9 8 10 8 7 6 6 5 5 5 4 5 5 4 5 3 4
11 7 6 4 4 6 7 9 7 5 10 17 19 19 22 21 22 20 18 14 11 8 11 7 4 6 10 10 9 11 14 13 10 10 9 7 6 5 5 5 6 6 4 4 3 3 4 4 4
7 7 5 8 7 8 2 6 9 7 9 10 13 16 17 16 19 19 20 18 16 14 13 14 5 14 13 13 13 14 14 14 14 12 8 9 6 5 5 5 6 5 5 5 4 4 4 4 4
8 4 4 8 7 8 4 6 6 5 5 7 8 10 10 15 15 18 21 20 20 19 17 22 22 16 14 14 16 14 14 10 9 10 8 6 6 5 6 6 6 6 5 4 4 4 3 4 3
5 5 2 5 2 4 3 4 10 7 8 8 10 10 11 10 12 17 20 22 24 22 22 11 15 18 17 17 13 12 13 12 10 10 8 6 6 6 7 6 6 6 5 4 3 4 4 3 4
2 8 4 1 5 9 5 3 5 5 10 9 9 9 6 3 10 15 19 22 23 21 18 15 14 16 16 16 14 13 13 12 11 9 9 9 9 8 7 7 6 5 5 4 4 4 5 4 4
4 4 3 1 2 10 12 8 7 11 9 8 9 8 7 7 11 14 17 19 20 19 18 15 16 18 16 15 14 13 12 12 11 10 10 9 9 8 8 7 6 5 5 5 5 5 5 5 5
2 4 7 8 6 2 4 7 5 9 8 9 11 8 9 10 11 13 15 17 20 19 17 16 16 15 15 14 13 14 13 13 12 10 10 9 10 9 7 7 6 6 6 6 6 6 5 6 6
Wind_Direction
142 150 154 187 211 321 67 56 299 46 102 64 137 189 168 42 12 31 119 136 151 140 141 138 131 123 118 111 108 107 106 105 104 102 102 100 99 96 93 92 97 101 95 86 73 61 53 42 32
144 152 191 221 348 103 78 30 59 61 107 109 96 109 93 83 78 115 140 149 142 138 141 142 138 134 125 120 118 117 114 111 111 110 106 104 101 98 97 96 100 106 100 88 69 48 27 9 360
154 209 252 91 92 81 98 130 116 118 82 115 112 47 52 69 107 136 127 149 143 143 142 140 143 139 134 128 125 120 118 119 119 116 112 109 104 100 93 87 86 83 69 43 9 351 343 340 339
188 170 129 101 94 105 107 148 132 120 100 79 104 82 95 340 142 157 148 151 147 143 145 138 146 142 137 133 129 125 123 122 119 116 112 108 104 95 83 72 49 18 356 344 337 333 329 328 327
50 183 77 77 68 32 100 149 142 115 98 112 117 108 79 101 102 144 150 157 149 144 151 151 154 153 151 148 139 135 131 127 123 123 120 111 102 93 64 13 348 335 331 329 325 322 318 313 311
144 278 135 248 144 88 130 157 132 86 120 125 102 108 124 99 150 154 153 155 150 150 157 157 162 164 162 157 147 139 132 124 115 102 86 77 56 12 353 336 327 317 310 307 308 307 306 304 301
76 119 110 151 122 170 141 155 166 133 134 108 118 122 98 166 154 152 153 148 153 155 167 166 167 168 168 157 147 139 129 118 103 83 61 34 10 354 335 321 308 304 301 299 300 300 299 295 289
98 115 145 199 179 165 146 134 131 142 93 117 141 141 154 160 150 148 152 147 150 163 186 176 175 170 174 161 158 153 138 115 81 55 36 16 354 4 6 319 1 322 316 313 314 320 325 318 298
166 186 198 181 175 148 156 136 148 83 132 112 148 124 120 139 148 152 159 168 175 182 185 180 176 175 172 155 150 165 165 137 118 99 44 24 18 20 48 50 49 46 44 40 30 6 352 338 341
208 227 207 191 195 181 162 149 147 144 145 126 129 96 128 147 163 170 176 181 188 185 190 189 188 178 165 171 167 157 148 117 98 74 61 54 58 69 65 59 50 45 20 27 5 1 331 325 344
151 257 360 203 195 181 150 133 135 149 185 190 177 146 152 162 172 183 185 189 193 187 193 191 187 181 182 179 160 165 173 148 124 98 72 74 102 71 53 46 34 19 20 8 355 358 3 353 345
245 284 286 115 148 148 155 130 152 174 201 184 163 157 158 172 180 190 190 191 195 202 199 190 187 180 179 170 153 151 201 175 162 93 147 126 108 77 50 39 30 24 15 6 7 3 356 353 349
227 80 54 86 119 86 120 133 130 185 133 155 146 161 170 180 183 191 199 197 201 209 202 199 193 182 170 193 158 146 136 158 116 108 104 111 102 82 62 51 40 31 24 18 16 10 4 0 358
73 106 117 70 98 78 139 114 198 185 153 151 163 175 176 186 187 184 197 204 201 207 205 194 195 175 159 149 94 105 122 120 110 99 94 95 87 79 71 63 52 46 33 34 24 18 12 13 4
119 124 125 57 88 94 119 207 218 132 156 170 183 179 185 194 190 198 197 207 202 206 197 190 181 160 161 139 129 113 121 113 106 101 86 84 82 81 79 69 56 47 40 35 28 19 21 20 19
150 155 164 118 158 85 218 232 198 161 163 177 187 193 195 198 206 207 205 210 205 206 186 179 172 161 150 141 130 126 123 113 105 100 96 89 91 89 84 76 59 49 48 39 33 22 19 18 21
50 168 182 142 181 145 212 242 65 181 185 184 192 193 198 201 215 219 220 215 206 198 183 169 160 156 143 132 130 124 120 110 102 105 102 102 95 92 89 81 72 62 55 45 31 33 21 15 14
165 152 186 217 180 208 218 237 166 188 209 200 197 198 200 207 210 208 217 209 194 186 177 161 152 145 133 130 115 116 105 101 108 108 103 105 97 95 98 88 71 63 57 48 38 35 32 22 5
126 143 191 205 177 197 223 245 220 209 216 218 205 201 205 207 196 192 184 179 171 169 163 156 150 147 140 144 136 126 121 123 111 107 110 108 103 97 98 90 87 76 62 51 40 38 36 33 13
119 132 191 296 109 214 235 252 252 229 229 219 215 208 206 200 195 189 180 172 176 166 165 163 158 158 152 142 139 129 138 131 125 122 115 112 113 103 96 92 82 65 68 51 41 34 27 36 31
213 203 180 242 103 179 97 262 247 224 216 219 220 219 212 205 198 191 187 184 178 176 171 167 160 160 157 144 127 118 119 128 139 134 126 121 109 100 96 92 84 81 68 66 53 41 35 23 39
204 215 190 173 177 205 194 260 233 233 224 220 219 214 214 210 209 199 189 187 191 180 165 163 160 156 157 158 151 159 159 156 149 145 134 125 116 109 105 97 92 81 72 66 60 47 34 4 24
221 180 184 185 181 180 184 246 205 218 220 228 225 221 219 213 206 202 196 194 179 160 148 132 135 147 163 172 161 165 168 151 150 147 141 128 124 117 108 97 83 69 57 65 48 41 33 47 19
144 118 105 109 168 227 213 240 230 200 221 233 235 232 228 220 216 205 197 176 152 110 100 79 173 176 181 169 183 185 164 157 158 158 152 150 141 132 114 100 86 71 64 59 46 45 45 49 44
187 179 186 218 216 251 141 215 256 247 238 257 260 244 244 230 220 204 187 173 143 141 129 133 202 261 176 178 191 187 169 167 165 163 161 156 148 145 122 108 87 77 57 51 33 56 64 53 37
191 217 198 225 230 251 156 218 233 277 251 261 279 280 263 249 221 202 188 170 157 165 170 175 191 196 178 176 189 182 174 171 166 175 163 155 145 133 124 103 92 85 66 45 48 71 58 44 32
148 200 66 118 79 241 197 236 268 225 244 257 268 285 280 256 213 195 188 181 174 178 189 202 172 190 184 180 178 173 176 171 169 168 162 145 130 120 107 96 89 80 71 43 86 69 52 28 25
196 136 154 192 226 247 202 238 240 203 221 217 249 254 279 220 182 192 194 193 185 182 193 202 181 190 181 177 172 174 176 174 164 159 153 143 130 123 117 108 99 88 72 53 52 78 58 35 23
153 186 72 117 266 257 261 249 208 212 213 232 243 249 251 208 198 199 205 203 192 188 191 190 188 187 179 174 170 169 168 163 156 158 146 137 129 126 122 113 97 81 77 65 66 64 36 27 19
204 217 188 242 218 244 292 250 190 221 212 207 240 240 233 218 202 202 207 212 199 197 192 182 185 176 171 170 172 164 152 153 155 144 136 136 126 123 120 111 99 92 80 66 58 50 34 20 15